This is the latest recevied weather packets stored in our database for station/object DL1GHN-6. If no packets are shown the sender has not sent any weather packets the latest 10 day(s).
| Time | Temp. | Humidity | Pressure | Rain* | Wind** | Luminosity | Snow |
|---|---|---|---|---|---|---|---|
| 1778239775 | 19.44° C | 67% | 1015.9 hPa | 0 mm | - | 810 W/m² | - |
| 1778239475 | 19.44° C | 64% | 1015.9 hPa | 0 mm | - | 814 W/m² | - |
| 1778239176 | 19.44° C | 68% | 1016 hPa | 0 mm | - | 816 W/m² | - |
| 1778238875 | 18.89° C | 66% | 1016.1 hPa | 0 mm | - | 817 W/m² | - |
| 1778238576 | 18.89° C | 67% | 1016.1 hPa | 0 mm | - | 809 W/m² | - |
| 1778238276 | 18.89° C | 66% | 1016.2 hPa | 0 mm | - | 807 W/m² | - |
| 1778237975 | 18.89° C | 65% | 1016.3 hPa | 0 mm | - | 810 W/m² | - |
| 1778237675 | 18.33° C | 67% | 1016.3 hPa | 0 mm | - | 812 W/m² | - |
| 1778237375 | 18.33° C | 68% | 1016.4 hPa | 0 mm | - | 803 W/m² | - |
| 1778237075 | 18.33° C | 63% | 1016.3 hPa | 0 mm | - | 784 W/m² | - |
| 1778236775 | 18.33° C | 64% | 1016.4 hPa | 0 mm | - | 798 W/m² | - |
| 1778236476 | 17.78° C | 68% | 1016.5 hPa | 0 mm | - | 800 W/m² | - |
| 1778236175 | 17.22° C | 71% | 1016.5 hPa | 0 mm | - | 788 W/m² | - |
| 1778235876 | 17.22° C | 64% | 1016.5 hPa | 0 mm | - | 780 W/m² | - |
| 1778235576 | 17.22° C | 70% | 1016.5 hPa | 0 mm | - | 752 W/m² | - |
| 1778235277 | 17.22° C | 67% | 1016.6 hPa | 0 mm | - | 693 W/m² | - |
| 1778234975 | 17.22° C | 68% | 1016.5 hPa | 0 mm | - | 738 W/m² | - |
| 1778234675 | 16.67° C | 73% | 1016.6 hPa | 0 mm | - | 712 W/m² | - |
| 1778234375 | 16.67° C | 73% | 1016.7 hPa | 0 mm | - | 728 W/m² | - |
| 1778234077 | 16.67° C | 72% | 1016.7 hPa | 0 mm | - | 721 W/m² | - |
| 1778233775 | 16.67° C | 75% | 1016.8 hPa | 0 mm | - | 705 W/m² | - |
| 1778233476 | 16.11° C | 75% | 1016.8 hPa | 0 mm | - | 742 W/m² | - |
| 1778233175 | 15.56° C | 76% | 1016.8 hPa | 0 mm | - | 726 W/m² | - |
| 1778232875 | 15.56° C | 78% | 1016.9 hPa | 0 mm | - | 710 W/m² | - |
| 1778232576 | 15.56° C | 80% | 1016.9 hPa | 0 mm | - | 719 W/m² | - |
* Rain latest hour (hover to see other rain measurements)
** Current wind speed in m/s (hover to see current wind gust speed)